Flag for Norway Weather past 2 weeks in Hammerfest, Norway

Now
30 °F

Snow flurries. Ice fog.


Feels Like: 30 °F
Forecast: 24 / 32 °F
Wind: 1 mph from North

Location: Hammerfest

Current Time: Jan 27, 2015 at 6:30:17 PM

Latest Report: Jan 27, 2015 at 5:50 PM


Visibility: 2 mi

Pressure: 29.18 "Hg

Humidity: 100%

Dew point: 30 °F

Location of HammerfestLocation

Historic Weather in Hammerfest — Graph

°F

Hammerfest temperature yesterday

Maximum temperature yesterday: 36 °F (at 1:50 AM)
Minimum temperature yesterday: 28 °F (at 7:50 AM)
Average temperature yesterday: 31 °F

Past Weeks' High & Low Weather Summary

 TemperatureHumidityPressure
High36 °F (Jan 26, 1:50 AM)100% (Jan 17, 2:50 PM)30.33 "Hg (Jan 17, 2:50 PM)
Low3 °F (Jan 13, 7:50 AM)30% (Jan 23, 9:50 PM)28.82 "Hg (Jan 14, 1:50 AM)
Average22 °F73%29.58 "Hg
* Reported Jan 12 4:50 PM — Jan 27 4:50 PM, Hammerfest, Weather by CustomWeather, © 2014

Note: Actual official high and low records may vary slightly from our data, if they occured in-between our weather recording intervals... More about our weather records

Advertising

Hammerfest weather history for previous 24 hours

 ConditionsComfort  
Time TempWeatherWind HumidityBarometerVisibility
4:50 PM
Jan 27
30 °FSnow showers. Ice fog.2 mph93%29.18 "Hg1 mi
3:50 PM30 °FSnow flurries. Ice fog.6 mph93%29.18 "Hg1 mi
2:50 PM32 °FScattered showers. Partly cloudy.6 mph80%29.18 "HgN/A
1:50 PM32 °FScattered showers. Partly cloudy.6 mph69%29.18 "HgN/A
12:50 PM30 °FScattered showers. Broken clouds.5 mph69%29.18 "HgN/A
11:50 AM30 °FBroken clouds.6 mph69%29.18 "HgN/A
10:50 AM30 °FBroken clouds.1 mph64%29.18 "HgN/A
9:50 AM28 °FClear.2 mph64%29.18 "Hg10 mi
8:50 AM28 °FClear.5 mph74%29.18 "Hg10 mi
7:50 AM30 °FClear.6 mph69%29.18 "Hg10 mi
6:50 AM30 °FPassing clouds.3 mph69%29.18 "HgN/A
5:50 AM32 °FClear.8 mph69%29.18 "Hg10 mi
4:50 AM30 °FPassing clouds.6 mph69%29.18 "HgN/A
3:50 AM32 °FClear.7 mph69%29.21 "Hg10 mi
2:50 AM32 °FPassing clouds.6 mph69%29.21 "HgN/A
1:50 AM30 °FPassing clouds.6 mph75%29.21 "HgN/A
12:50 AM30 °FPassing clouds.6 mph75%29.24 "HgN/A
11:50 PM
Jan 26
30 °FClear.6 mph75%29.24 "Hg10 mi
10:50 PM30 °FClear.7 mph75%29.24 "Hg10 mi
9:50 PM30 °FClear.8 mph75%29.24 "Hg10 mi
8:50 PM30 °FPassing clouds.8 mph75%29.24 "HgN/A
7:50 PM30 °FPassing clouds.13 mph75%29.27 "HgN/A
6:50 PM30 °FPartly cloudy.14 mph75%29.24 "HgN/A
Weather by CustomWeather, © 2014

See weather overviewHow to use our weather pages